Narberth, United Kingdom
Current Conditions -  °F | °C
As of 9:50 AM on Saturday 20 Dec 2014 (Local Time) from EGOP Reporting Station
Few Clouds Few Clouds  
Wind Chill: 38°   Ceiling: Unl
Heat Index: 46°   Visibility: 6mi
Dew Point: 41°   Wind: 23mph
Humidity: 81%   Direction: 290°WNW
Pressure: 30.36"   Gusts: NA
Location:  51.8°N, 4.74°W
Report Text: EGOP 200950Z AUTO 29020KT 9999 // FEW031/// 08/05 Q1028
Loading
Personal Weather Stations






























Interactive Weather Map New forecast layout! Learn more

10-Day Weather Forecast

Advertisements
Track Severe Weather on mobile